Location: Azul
(36.7830°S, 59.8500°W)
Time: 16:36:28
(UTC-03:00)

ISS - Pass Details

Date: 01 March 2021
Orbit: 417 x 422 km, 51.6° (Epoch: 26 February)

Event Time Altitude Azimuth Distance (km) Brightness Sun altitude
Rises 21:55:31 0° 229° (SW) 2,402 1.4 -26.5°
Reaches altitude 10° 21:57:39 10° 227° (SW) 1,530 0.1 -26.9°
Enters shadow 21:59:13 25° 225° (SW) 912 -1.4 -27.1°
